147P/Kushida-Muramatsu (2001)

Japanese version
Home page
Total 6,336 html files since Dec. 4, 1995
Updated on February 26, 2002

---------------------------------------------------------------------

* Profile

Designation 147P/2000 T2
Recovery Date October 3, 2000
Magnitude 20.2 mag
Recoverer T. Oribe (Saji Observatory)

* Orbital Elements

Epoch 2001 May 11.0 TT = JDT 2452040.5  
T 2001 Apr. 29.50749 TT                                 Muraoka 
q   2.7523693            (2000.0)            P               Q
n   0.13256266     Peri.  347.49994     +0.15188424     -0.98753813
a   3.8093884      Node    93.75323     +0.91035762     +0.12352566
e   0.2774774      Incl.    2.36786     +0.38494179     +0.09751851
P   7.44
From 49 observations 1994-2000, mean residual 0".75.

* Finding Charts

* Magnitudes Graph

        m1 = 16.5 + 5 log d + 5.0 log r

---------------------------------------------------------------------

The orbital elements are calculated by Kenji Muraoka.
The charts are made with StellaNavigator Ver.2.0 for Windows (AstroArts / ASCII).
The magnitudes graphs are made with Comet for Windows.

---------------------------------------------------------------------

Copyright(C) 1995-2008 Seiichi Yoshida (comet@aerith.net). All rights reserved.